Location: Buckland
(65.9785°N, 161.1281°W)
Time: 15:47:03
(UTC+00:00)

Transit 4A - Pass Details

Date: 12 October 2022
Orbit: 871 x 972 km, 66.8° (Epoch: 29 November)

Event Time Altitude Azimuth Distance (km) Brightness Sun altitude
Exits shadow 13:43:38 42° 275° (W) 1,252 8.2 -22.9°
Maximum altitude 13:45:28 61° 217° (SW) 1,002 7.7 -22.7°
Drops below altitude 10° 13:51:11 10° 139° (SE) 2,525 10.2 -22.3°
Sets 13:53:40 0° 136° (SE) 3,459 11.0 -22.1°
